Weather in Malaya Bugulma

Russia / Republic of Tatarstan     54°30′38″N   52°53′02″E
temp.,
°C
wind,
m/s
gust,
m/s
humid.,
%
clouds,
%
prec.,
mm/h
press.,
hPa
HPBL,
m
12 april, mon
mon1200:00+9sse2283100 0.0 103215
03:00+8se2285100 0.0 103411
06:00+7ene0195100 0.1 103511
09:00+8ene249495 0.4 1036165
12:00+9ne4594100 0.1 1036335
15:00+8ne459586 0.1 1037263
18:00+7ene489895 0.0 1037281
21:00+6ene389863 0.0 1038236
13 april, tue
tue1300:00+5e259867 0.0 1038122
03:00+5ene119766 0.0 103810
06:00+5ese129850 0.0 103845
09:00+8sse349176 0.0 1038254
12:00+14s456460 0.0 1036648
15:00+16sse44526 0.0 1036819
18:00+13sse326322 0.0 103435
21:00+10sse227359 0.0 103516
14 april, wed
wed1400:00+8s238753 0.0 103424
03:00+7s229146 0.0 103421
06:00+7sse2392100 0.0 103462
09:00+11sse347346 0.0 1033415
12:00+15se455835 0.0 1031754
15:00+16sse44525 0.0 1029964
18:00+14sse22645 0.0 102822
21:00+11se22645 0.0 102811
15 april, thu
thu1500:00+8sse22635 0.0 102711
03:00+8sse227277 0.0 102610
06:00+7sse226815 0.0 102525
09:00+12s35545 0.0 1024411
12:00+16s45453 0.0 1022958
15:00+18ssw45404 0.0 10201351
18:00+15ssw22540 0.0 101912
21:00+12ssw22610 0.0 101910
16 april, fri
fri1600:00+10sw22640 0.0 101810
03:00+9ssw22655 0.0 101710
06:00+9sw226327 0.0 101617
09:00+15sw354737 0.0 1015427
12:00+17wsw56449 0.0 10131670
15:00+18w684086 0.0 10112420
18:00+14nw495599 0.0 1011349
21:00+11nnw6117257 0.0 1011397